Regional Weather Roundup
Issued by NWS

Home | Current Version | Previous Version | Graphics & Text | Print | Product List | Glossary On
Versions: 1 2 3 4 5 6 7 8 9 10 11 12 13 14 15 16 17 18 19 20 21 22 23 24 25 26 27 28 29 30 31 32 33 34 35 36 37 38 39 40 41 42 43 44 45 46 47 48 49 50
000
ASUS43 KIND 251909
RWRIN

WEATHER ROUNDUP FOR INDIANA
NATIONAL WEATHER SERVICE INDIANAPOLIS IN
300 PM EDT SAT OCT 25 2014

NOTE: "FAIR" INDICATES FEW OR NO CLOUDS BELOW 12,000 FEET WITH NO
SIGNIFICANT WEATHER AND/OR OBSTRUCTIONS TO VISIBILITY.

* - STATION DOES NOT REPORT WEATHER SUCH AS PRECIPITATION OR FOG.

+ - STATION NOT QUALITY CONTROLLED BY THE NATIONAL WEATHER SERVICE.
    USE DATA WITH CAUTION...ESPECIALLY DEWPOINT AND RELATIVE
    HUMIDITY OBSERVATIONS.

INZ001>003-010>013-019-020-252000-
NORTHWEST INDIANA

CITY           SKY/WX    TMP DP  RH WIND       PRES   REMARKS
GARY /AIRPORT/ MOSUNNY   73  34  23 NW14      29.92F
KNOX *+        SUNNY     71  37  29 NW13      29.91F
LA PORTE +     SUNNY     69  41  36 NW14      29.92F
MICHIGAN CITY+ SUNNY     66  36  32 NW9       29.93F
MONTICELLO +   SUNNY     69  56  62 NW12      29.93F
RENSSELAER +   SUNNY     72  48  43 W12G18    29.94F
VALPARAISO     SUNNY     71  44  37 W14       29.92F

$$

LMZ046-743>745-252000-
SOUTHERN LAKE MICHIGAN

STATION/POSITION TIME  TEMP WIND        PRES
                       AIR  DIR/SP/G
                 (UTC) (F)  (DEG/KT/KT) (MB)
MICHIGAN CITY    1800   58  240/ 12/ 12   N/A

$$

INZ004-005-014>016-021>024-252000-
NORTH CENTRAL INDIANA

CITY           SKY/WX    TMP DP  RH WIND       PRES   REMARKS
GOSHEN         SUNNY     67  45  45 W16G25    29.88F
LOGANSPORT +   SUNNY     70  52  52 W8        29.94S
PERU/GRISSOM   SUNNY     68  57  68 NW16      29.92F
ROCHESTER +    SUNNY     70  54  56 W10G16    29.91F
SOUTH BEND     NOT AVBL
WARSAW +       SUNNY     68  46  45 NW15      29.89F

$$

INZ006>009-017-018-025>027-252000-
NORTHEAST INDIANA

CITY           SKY/WX    TMP DP  RH WIND       PRES   REMARKS
ANGOLA *+      SUNNY     68  46  45 W13       29.85F
AUBURN +       SUNNY     66  50  55 W10G21    29.88F
FORT WAYNE     MOSUNNY   70  51  51 NW13G21   29.89F
HUNTINGTON +   MOSUNNY  N/A N/A N/A W13G18    29.90S

$$

INZ028-029-035-036-043>045-051>053-252000-
WEST CENTRAL INDIANA

CITY           SKY/WX    TMP DP  RH WIND       PRES   REMARKS
GREENCASTLE +  SUNNY     73  50  43 NW7       29.97S
LAFAYETTE      SUNNY     71  54  54 NW12      29.94F
TERRE HAUTE    SUNNY     77  53  43 NW9       29.97F

$$

INZ030>032-037>040-046>048-054>057-064-065-252000-
CENTRAL INDIANA

CITY           SKY/WX    TMP DP  RH WIND       PRES   REMARKS
ANDERSON       SUNNY     73  48  40 W17G23    29.92F
CP ATTERBURY + SUNNY     73  52  46 NW8       29.95S
COLUMBUS       SUNNY     75  57  53 MISG      29.94F
FRANKFORT +    SUNNY     75  50  40 W14       29.95F
GREENWOOD *+   SUNNY     75  48  38 W9G18     29.95
INDIANAPOLIS   MOSUNNY   75  50  41 W14G22    29.94F
-EAGLE CREEK   SUNNY     74  51  44 W16       29.93F
KOKOMO *+      SUNNY     70  52  52 NW17      29.93S
MARION +       SUNNY     72  49  44 NW15G22   29.92S
MT COMFORT *+  SUNNY     75  37  25 NW10G17   29.93F
SHELBYVILLE    SUNNY     75  53  46 W12       29.93F
ZIONSVILLE +   SUNNY     76  47  36 W13G18    29.94F

$$

INZ033-034-041-042-049-050-058-059-252000-
EAST CENTRAL INDIANA

CITY           SKY/WX    TMP DP  RH WIND       PRES   REMARKS
MUNCIE         SUNNY     74  50  42 NW17G24   29.90F

$$

INZ060-061-067>069-081>083-085>088-252000-
SOUTHWEST INDIANA

CITY           SKY/WX    TMP DP  RH WIND       PRES   REMARKS
EVANSVILLE     SUNNY     77  59  53 W8        29.98F
HUNTINGBURG *+ SUNNY     73  61  64 NW10      29.98F
WASHINGTON +   SUNNY     75  57  52 W9        29.96F HAZE

$$

INZ062-063-066-070>080-084-089>092-252000-
SOUTH CENTRAL AND SOUTHEAST INDIANA

CITY           SKY/WX    TMP DP  RH WIND       PRES   REMARKS
BLOOMINGTON    SUNNY     75  53  46 W8        29.97S
NORTH VERNON + SUNNY     72  55  56 W7        29.95

$$




USA.gov is the U.S. government's official web portal to all federal, state and local government web resources and services.